Station 42060 - Caribbean Valley - 63 NM WSW of Montserrat Image indicating link to RSS feed of recent meteorological observations for station 42060


Conditions at 42060 as of
(12:20 pm AST)
1620 GMT on 04/20/2024:
     

Click on the graph icon in the table below to see a time series plot of the last five days of that observation.

5-day plot - Wind Direction Wind Direction (WDIR):ENE ( 60 deg true )
5-day plot - Wind Speed Wind Speed (WSPD): 11.7 kts
5-day plot - Wind Gust Wind Gust (GST): 15.5 kts
5-day plot - Wave Height Wave Height (WVHT): 3.0 ft
5-day plot - Dominant Wave Period Dominant Wave Period (DPD): 9 sec
5-day plot - Average Wave Period Average Period (APD): 4.7 sec
5-day plot - Mean Wave Direction Mean Wave Direction (MWD):ESE ( 117 deg true )
5-day plot - Atmospheric Pressure Atmospheric Pressure (PRES):29.96 in
5-day plot - Air Temperature Air Temperature (ATMP): 81.5 °F
5-day plot - Water Temperature Water Temperature (WTMP): 83.5 °F
5-day plot - Dew Point Dew Point (DEWP): 76.5 °F
5-day plot - Heat Index Heat Index (HEAT): 88.7 °F
5-day plot - Wind Speed at 10 Meters Wind Speed at 10 meters (WSPD10M): 13.6 kts
5-day plot - Wind Speed at 20 Meters Wind Speed at 20 meters (WSPD20M): 13.6 kts
5-day plot -  Wind Speed, Wind Gust and Atmospheric Pressure Combined plot of Wind Speed, Gust, and Air Pressure
Supplemental Measurements
Highest 1-minute Wind Speed
Time (AST)5-day plot - 1-Minute Wind Speed WSPD 5-day plot - 1-Minute Wind Direction WDIR
12:13 pm 13.6 kts-
Previous observations
TIME
(AST)
5-day plot - Wind Direction
WDIR
 
5-day plot - Wind Speed
WSPD
kts
5-day plot - Wind Gust
GST
kts
5-day plot - Wave Height
WVHT
ft
5-day plot - Dominant Wave Period
DPD
sec
5-day plot - Average Wave Period
APD
sec
5-day plot - Mean Wave Direction
MWD
 
5-day plot - Atmospheric Pressure
PRES
in
5-day plot - Pressure Tendency
PTDY
in
5-day plot - Air Temperature
ATMP
°F
5-day plot - Water Temperature
WTMP
°F
5-day plot - Dew Point
DEWP
°F
5-day plot - Salinity
SAL
psu
5-day plot - Visibility
VIS
nmi
5-day plot - Tide (above MLLW)
TIDE
ft
2024-04-20 12:10 pmENE 13.6 15.5----29.96- 81.7 83.5 75.7---
2024-04-20 12:00 pmENE 11.7 13.6----29.96-0.01 81.7 83.5 75.6---
2024-04-20 11:50 amENE 11.7 13.6 3.0 84.7 E29.97- 81.3 83.5 75.4---
2024-04-20 11:40 amENE 9.7 11.7----29.97- 81.0 83.5 76.1---
2024-04-20 11:30 amENE 11.7 13.6----29.98- 80.8 83.5 75.9---
2024-04-20 11:20 amENE 11.7 13.6 3.0 84.4ENE29.98- 80.8 83.5 76.1---
2024-04-20 11:10 amENE 11.7 13.6 3.0-4.4ENE29.98- 80.6 83.3 76.1---
2024-04-20 11:00 amENE 9.7 13.6----29.98+0.01 80.6 83.3 76.5---
2024-04-20 10:50 amENE 11.7 13.6 3.0 84.3 E29.98- 80.4 83.3 76.1---
2024-04-20 10:40 amENE 11.7 15.5----29.98- 80.6 83.1 76.8---
2024-04-20 10:30 amENE 11.7 15.5----29.98- 80.6 83.1 76.6---
2024-04-20 10:20 am NE 13.6 17.5 3.0 114.7ENE29.99- 80.6 83.1 76.6---
2024-04-20 10:10 am NE 13.6 17.5 3.0-4.7ENE29.99- 81.1 83.3 76.3---
2024-04-20 10:00 am NE 13.6 15.5----29.99+0.04 81.1 83.3 76.6---
2024-04-20 09:50 amENE 11.7 13.6 2.6 114.6ENE29.99- 81.5 83.3 75.4---
2024-04-20 09:40 am NE 9.7 11.7----29.98- 81.7 83.3 75.0---
2024-04-20 09:30 am NE 7.8 11.7----29.98- 81.5 83.1 75.0---
2024-04-20 09:20 amENE 7.8 9.7 3.0 84.9 E29.98- 81.1 83.1 75.4---
2024-04-20 09:10 amENE 7.8 9.7 3.0-4.9 E29.98- 81.1 82.9 75.6---
2024-04-20 09:00 amENE 7.8 9.7----29.98+0.05 81.1 82.9 76.1---
2024-04-20 08:50 am NE 7.8 9.7 3.0 95.1ENE29.98- 81.3 82.9 75.9---
2024-04-20 08:40 amENE 9.7 11.7 3.0-5.1ENE29.98- 81.1 82.9 75.9---
2024-04-20 08:30 amENE 9.7 11.7----29.98- 81.1 82.9 76.3---
2024-04-20 08:20 amENE 11.7 11.7 2.6 84.6ENE29.97- 81.3 82.9 76.8---
2024-04-20 08:10 amENE 11.7 15.5 2.6-4.6ENE29.97- 81.5 82.9 77.0---
2024-04-20 08:00 amENE 11.7 15.5----29.97+0.04 82.0 82.8 76.8---
2024-04-20 07:50 amENE 9.7 13.6 2.6 84.9 E29.97- 82.0 82.8 76.5---
2024-04-20 07:40 am NE 9.7 11.7----29.97- 81.9- 76.5---
2024-04-20 07:30 am NE 7.8 11.7----29.97- 81.9 82.8 76.5---
2024-04-20 07:20 am NE 9.7 11.7 2.6 94.9ENE29.96- 81.7 82.8 76.3---
2024-04-20 07:10 am NE 9.7 11.7 2.6-4.9ENE29.96- 81.5 82.8 76.5---
2024-04-20 07:00 am NE 9.7 11.7----29.95+0.04 81.5 82.8 76.1---
2024-04-20 06:50 am NE 9.7 11.7 3.0 84.8ENE29.95- 81.3 82.8 76.1---
2024-04-20 06:40 am NE 9.7 11.7 3.0-4.8ENE29.95- 81.1 82.8 76.1---
2024-04-20 06:30 am NE 9.7 11.7----29.94- 81.0 82.9 75.9---
2024-04-20 06:20 am NE 11.7 13.6 2.6 94.7ENE29.94- 80.8 82.9 75.9---
2024-04-20 06:10 am NE 11.7 13.6 2.6-4.7ENE29.94- 80.6 82.9 76.1---
2024-04-20 06:00 am NE 11.7 15.5----29.93+0.03 80.6 83.1 76.6---
2024-04-20 05:50 am NE 11.7 13.6 2.6 115.0 NE29.93- 80.8 83.1 76.8---
2024-04-20 05:40 amENE 11.7 13.6----29.93- 80.8 83.1 76.1---
2024-04-20 05:30 am NE 11.7 13.6----29.92- 80.6 83.3 76.8---
2024-04-20 05:20 amENE 11.7 13.6 2.3 115.5 NE29.92- 81.1 83.3 77.4---
2024-04-20 05:10 amENE 7.8 9.7 2.3-5.5 NE29.92- 81.5 83.3 76.5---
2024-04-20 05:00 am NE 7.8 9.7----29.92+0.00 81.5 83.3 76.5---
2024-04-20 04:50 amENE 5.8 7.8 2.3 115.7NNE29.92- 81.7 83.3 76.6---
2024-04-20 04:40 am E 5.8 7.8 2.3-5.7NNE29.92- 81.7 83.3 76.5---
2024-04-20 04:30 am E 5.8 7.8----29.91- 81.5 83.3 76.1---
2024-04-20 04:20 am E 7.8 7.8 2.6 85.6ENE29.91- 81.5 83.3 75.7---
2024-04-20 04:10 am E 7.8 7.8 2.6-5.6ENE29.91- 81.5 83.3 75.9---
2024-04-20 04:00 am E 7.8 9.7----29.91-0.02 81.3 83.3 76.1---
2024-04-20 03:50 am E 7.8 9.7 2.6 116.0 NE29.91- 81.5 83.3 76.1---
2024-04-20 03:40 am E 7.8 9.7----29.91- 81.5 83.3 76.3---
2024-04-20 03:30 amENE 3.9 5.8----29.90- 81.7 83.5 75.7---
2024-04-20 03:20 amENE 3.9 5.8 2.6 115.6 NE29.90- 81.5 83.5 76.1---
2024-04-20 03:10 amENE 1.9 3.9 2.6-5.6 NE29.90- 81.3 83.5 76.6---
2024-04-20 03:00 am NE 3.9 3.9----29.91-0.04 81.0 83.7 76.6---
2024-04-20 02:50 am NE 3.9 3.9 2.6 85.5 E29.91- 80.8 83.7 76.6---
2024-04-20 02:40 am NE 3.9 5.8----29.91- 80.6 83.7 76.8---
2024-04-20 02:30 am NE 3.9 5.8----29.91- 80.4 83.7 76.6---
2024-04-20 02:20 amNNE 5.8 7.8 3.0 86.1 NE29.91- 80.2 83.8 76.3---
2024-04-20 02:10 amNNE 3.9 7.8 3.0-6.1 NE29.92- 80.4 83.8 76.3---
2024-04-20 02:00 amNNE 3.9 7.8----29.92-0.04 80.4 83.8 75.9---
2024-04-20 01:50 am N 7.8 9.7 2.6 116.1 NE29.93- 80.4 83.8 75.6---
2024-04-20 01:40 am N 7.8 11.7----29.93- 80.6 83.8 75.7---
2024-04-20 01:30 amNNE 7.8 13.6----29.93- 80.8 83.8 75.6---
2024-04-20 01:20 am E 7.8 9.7 2.6 76.1ENE29.93- 81.5 83.8 77.0---
2024-04-20 01:10 am E 5.8 9.7 2.6-6.1ENE29.93- 81.5 83.7 77.2---
2024-04-20 01:00 amESE 7.8 9.7----29.93-0.03 81.5 83.7 76.6---
2024-04-20 12:50 am E 7.8 9.7 2.3 86.3ENE29.93- 81.9 83.7 76.6---
2024-04-20 12:40 am E 9.7 11.7----29.94- 81.7 83.8 76.8---
2024-04-20 12:30 am E 9.7 11.7----29.94- 82.2 83.7 77.4---
2024-04-20 12:20 amENE 5.8 9.7 2.6 86.6ENE29.94- 82.6 83.7 76.6---
2024-04-20 12:10 amENE 7.8 9.7 2.6-6.6ENE29.94- 82.6 83.7 77.2---
2024-04-20 12:00 amENE 7.8 9.7----29.94+0.00 82.8 83.7 77.0---
2024-04-19 11:50 pmENE 5.8 7.8 2.6 86.5 E29.95- 82.8 83.7 76.8---
2024-04-19 11:40 pm NE 5.8 7.8----29.95- 82.8 83.7 76.8---
2024-04-19 11:30 pm NE 5.8 7.8----29.96- 82.8 83.7 76.6---
2024-04-19 11:20 pm NE 5.8 7.8 2.3 96.3ENE29.96- 82.8 83.7 77.0---
2024-04-19 11:10 pm NE 5.8 7.8 2.3-6.3ENE29.96- 82.9 83.7 77.5---
2024-04-19 11:00 pm NE 5.8 7.8----29.96+0.04 82.9 83.7 77.2---
2024-04-19 10:50 pm NE 5.8 7.8 2.3 76.4ENE29.96- 82.9 83.7 77.5---
2024-04-19 10:40 pm NE 5.8 7.8 2.3-6.4ENE29.96- 82.9 83.7 77.5---
2024-04-19 10:30 pmENE 5.8 7.8----29.96- 82.9 83.7 77.4---
2024-04-19 10:20 pm NE 7.8 7.8 3.0 96.8ENE29.96- 82.9 83.7 77.2---
2024-04-19 10:10 pm NE 7.8 9.7 3.0-6.8ENE29.96- 82.9 83.7 77.4---
2024-04-19 10:00 pm NE 7.8 7.8----29.96+0.06 83.1 83.7 77.2---
2024-04-19 09:50 pm NE 5.8 7.8 3.0 86.7ENE29.96- 83.1 83.7 77.2---
2024-04-19 09:40 pm NE 7.8 9.7----29.96- 82.9 83.7 77.2---
2024-04-19 09:30 pm NE 5.8 7.8----29.95- 82.9 83.7 77.4---
2024-04-19 09:20 pm NE 5.8 7.8 2.6 86.6ENE29.95- 82.8 83.7 77.4---
2024-04-19 09:10 pmENE 5.8 7.8 2.6-6.6ENE29.94- 82.8 83.7 77.5---
2024-04-19 09:00 pmENE 5.8 7.8----29.94+0.07 82.8 83.7 77.5---
2024-04-19 08:50 pm E 5.8 7.8 2.6 86.7 E29.94- 82.8 83.8 77.4---
2024-04-19 08:40 pmENE 7.8 9.7----29.93- 82.9 83.8 77.4---
2024-04-19 08:30 pm NE 5.8 9.7----29.93- 83.1 83.8 77.2---
2024-04-19 08:20 pmENE 7.8 9.7 3.0 86.6 E29.93- 83.1 83.8 77.2---
2024-04-19 08:10 pm NE 7.8 7.8 3.0-6.6 E29.93- 83.1 83.7 77.2---
2024-04-19 08:00 pm NE 5.8 9.7----29.92+0.06 82.9 83.7 76.8---
2024-04-19 07:50 pm NE 7.8 7.8 2.6 86.5 E29.91- 82.9 83.7 77.0---
2024-04-19 07:40 pmENE 5.8 7.8----29.91- 82.9 83.7 77.0---
2024-04-19 07:20 pm NE 5.8 7.8 2.6 86.4 E29.91- 82.9 83.7 76.8---
2024-04-19 07:10 pm NE 5.8 7.8 2.6-6.4 E29.90- 82.9 83.5 77.0---
2024-04-19 07:00 pm NE 5.8 7.8----29.90+0.04 82.9 83.5 76.8---
2024-04-19 06:50 pm NE 5.8 7.8 2.6 116.7NNE29.89- 82.9 83.5 77.2---
2024-04-19 06:40 pm NE 5.8 7.8 2.6-6.7NNE29.89- 82.8 83.7 76.6---
2024-04-19 06:30 pm NE 5.8 7.8----29.88- 82.9 84.0 77.2---
2024-04-19 06:20 pmNNE 5.8 7.8 2.6 86.4 E29.88- 83.1 84.2 77.0---
2024-04-19 06:10 pm NE 5.8 7.8 2.6-6.4 E29.87- 83.1 84.4 76.8---
2024-04-19 06:00 pm NE 5.8 7.8----29.87+0.00 83.1 83.7 77.0---
2024-04-19 05:50 pm NE 5.8 7.8 2.6 86.5 E29.87- 83.1 83.5 76.8---
2024-04-19 05:40 pm NE 5.8 7.8 2.6-6.5 E29.87- 83.3 83.3 77.4---
2024-04-19 05:30 pm NE 7.8 7.8----29.86- 83.3 83.5 77.5---
2024-04-19 05:20 pm NE 5.8 9.7 2.6 96.6ESE29.86- 83.1 83.7 77.5---
2024-04-19 05:10 pm NE 5.8 7.8 2.6-6.6ESE29.86- 83.1 83.7 77.5---
2024-04-19 05:00 pmNNE 5.8 7.8----29.86-0.02 83.3 83.7 77.5---
2024-04-19 04:50 pmNNE 3.9 5.8 2.6 96.2 NE29.86- 83.5 83.7 77.7---
2024-04-19 04:40 pmENE 3.9 5.8----29.86- 83.5 83.7 77.4---
2024-04-19 04:30 pmENE 3.9 5.8----29.86- 83.7 83.5 77.5---
2024-04-19 04:20 pmENE 3.9 7.8 2.6 86.3ENE29.86- 83.8 83.3 77.9---
2024-04-19 04:10 pm NE 5.8 5.8 2.6-6.3ENE29.86- 83.5 83.5 77.4---
2024-04-19 04:00 pm NE 3.9 5.8----29.86-0.05 83.7 83.5 77.9---
2024-04-19 03:50 pmNNE 5.8 7.8 2.6 86.2ENE29.87- 83.5 83.5 77.9---
2024-04-19 03:40 pmNNE 3.9 5.8 2.6-6.2ENE29.86- 83.5 83.5 77.7---
2024-04-19 03:30 pmNNE 3.9 5.8----29.87- 83.5 83.3 77.7---
2024-04-19 03:20 pm NE 3.9 5.8 2.6 126.4 NE29.87- 83.5 83.3 77.7---
2024-04-19 03:10 pmNNE 3.9 5.8 2.6-6.4 NE29.87- 83.5 83.3 77.9---
2024-04-19 03:00 pmENE 3.9 5.8----29.87-0.06 83.5 83.3 77.9---
2024-04-19 02:50 pmENE 3.9 5.8 2.6 86.2ENE29.87- 83.3 83.3 77.7---
2024-04-19 02:40 pmENE 3.9 5.8----29.87- 83.3 83.7 77.7---
2024-04-19 02:30 pmENE 3.9 3.9----29.87- 83.1 83.5 77.5---
2024-04-19 02:20 pmENE 3.9 5.8 2.6 86.2ENE29.87- 82.9 84.0 77.5---
2024-04-19 02:10 pm NE 3.9 5.8 2.6-6.2ENE29.88- 82.9 84.2 77.5---
2024-04-19 02:00 pm NE 3.9 5.8----29.88-0.06 82.9 83.5 77.5---
2024-04-19 01:50 pm NE 3.9 3.9 3.0 86.4 E29.88- 82.9 83.3 77.5---
2024-04-19 01:40 pmENE 3.9 5.8----29.89- 82.9 83.5 77.5---
2024-04-19 01:30 pmENE 3.9 5.8----29.90- 82.9 83.5 77.5---
2024-04-19 01:20 pm NE 3.9 5.8 3.0 86.3ENE29.90- 82.8 83.7 77.4---
2024-04-19 01:10 pmENE 3.9 5.8 3.0-6.3ENE29.91- 82.9 83.8 77.2---
2024-04-19 01:00 pm NE 3.9 5.8----29.91-0.04 82.8 83.7 77.2---
2024-04-19 12:50 pmENE 3.9 3.9 3.0 86.1 E29.91- 82.9 83.7 77.4---
2024-04-19 12:40 pm E 3.9 3.9----29.92- 82.8 83.7 77.2---
2024-04-19 12:30 pm E 3.9 5.8----29.92- 82.8 83.5 77.4---
2024-04-19 12:20 pm E 3.9 5.8 3.3 96.5 E29.93- 82.6 83.5 77.4---
2024-04-19 12:10 pm E 3.9 5.8 3.3-6.5 E29.93- 82.6 83.5 77.4---
2024-04-19 12:00 pm E 3.9 7.8----29.93-0.02 82.6 83.5 77.5---
2024-04-19 11:50 am E 5.8 5.8 3.3 86.3 E29.93- 82.4 83.1 77.5---

Detailed Wave Summary
for 42060 as of (12:10 pm AST)
1610 GMT on 04/20/2024:

These wave data are displayed in rounded times.

     

Click on the graph icon in the table below to see a time series plot of the last five days of that observation.

5-day plot - Significant Wave Height Significant Wave Height (WVHT): 3.0 ft
5-day plot - Swell Height Swell Height (SwH): 2.0 ft
5-day plot - Swell Period Swell Period (SwP): 9.1 sec
5-day plot - Swell Direction Swell Direction (SwD):ESE
5-day plot - Wind Wave Height Wind Wave Height (WWH): 2.0 ft
5-day plot - Wind Wave Period Wind Wave Period (WWP): 3.8 sec
5-day plot - Wind Wave Direction Wind Wave Direction (WWD): NE
5-day plot - Wave Steepness Wave Steepness (STEEPNESS): SWELL
5-day plot - Average Wave Period Average Wave Period (APD): 4.7 sec
Previous observations
TIME
(AST)
5-day plot - Wave Height
WVHT
ft
5-day plot - Swell Height
SwH
ft
5-day plot - Swell Period
SwP
sec
5-day plot - Swell Direction
SwD
 
5-day plot - Wind Wave Height
WWH
ft
5-day plot - Wind Wave Period
WWP
sec
5-day plot - Wind Wave Direction
WWD
 
5-day plot - Wave Steepness
STEEPNESS
 
5-day plot - Average Wave Period
APD
sec
2024-04-20 11:40 am 3.0 2.3 8.3 E 2.0 3.7 ENE SWELL 4.7
2024-04-20 11:10 am 3.0 2.0 8.3ENE 2.3 3.8 ENE AVERAGE 4.4
2024-04-20 10:40 am 3.0 2.0 8.3 E 2.3 4.0 NE AVERAGE 4.3
2024-04-20 10:10 am 3.0 2.0 10.8ENE 2.0 3.6 ENE SWELL 4.7
2024-04-20 09:40 am 2.6 2.0 10.8ENE 1.6 3.8 ENE N/A 4.6
2024-04-20 09:10 am 3.0 2.3 8.3 E 1.6 3.6 ENE SWELL 4.9
2024-04-20 08:40 am 3.0 2.6 9.1ENE 1.6 3.4 NE SWELL 5.1
2024-04-20 08:10 am 2.6 2.0 8.3ENE 1.6 3.3 NE SWELL 4.6
2024-04-20 07:40 am 2.6 2.3 8.3 E 1.3 3.2 ENE SWELL 4.9
2024-04-20 07:10 am 2.6 2.3 9.1ENE 1.6 3.4 ENE SWELL 4.9
2024-04-20 06:40 am 3.0 2.3 8.3ENE 1.6 3.7 ENE SWELL 4.8
2024-04-20 06:10 am 2.6 2.0 9.1ENE 1.6 3.3 ENE N/A 4.7
2024-04-20 05:40 am 2.6 2.0 10.8 NE 1.3 5.3 ENE N/A 5.0
2024-04-20 05:10 am 2.3 2.3 11.4 NE 1.0 3.8 ESE N/A 5.5
2024-04-20 04:40 am 2.3 2.3 10.8NNE 1.0 2.9 NE N/A 5.7
2024-04-20 04:10 am 2.6 2.6 7.7ENE 1.0 2.7 NNE SWELL 5.6
2024-04-20 03:40 am 2.6 2.3 11.4 NE 0.7 3.8 ENE N/A 6.0
2024-04-20 03:10 am 2.6 2.3 10.8 NE 1.0 2.9 NNE N/A 5.6
2024-04-20 02:40 am 2.6 2.3 8.3 E 1.0 2.7 NNE N/A 5.5
2024-04-20 02:10 am 3.0 2.6 8.3 NE 1.0 2.5 NNE SWELL 6.1
2024-04-20 01:40 am 2.6 2.6 10.8 NE 0.7 3.7 ESE N/A 6.1
2024-04-20 01:10 am 2.6 2.3 7.1ENE 0.7 3.8 E N/A 6.1
2024-04-20 12:40 am 2.3 2.3 7.7ENE 0.7 4.0 ESE N/A 6.3
2024-04-20 12:10 am 2.6 2.6 7.7ENE 0.7 3.6 E SWELL 6.6
2024-04-19 11:40 pm 2.6 2.6 8.3 E 0.7 4.0 SE N/A 6.5
2024-04-19 11:10 pm 2.3 2.3 9.1ENE 0.7 3.7 ESE N/A 6.3
2024-04-19 10:40 pm 2.3 2.3 7.1ENE 0.7 3.1 E N/A 6.4
2024-04-19 10:10 pm 3.0 2.6 9.1ENE 0.7 3.8 E SWELL 6.8
2024-04-19 09:40 pm 3.0 2.6 8.3ENE 0.7 3.8 ESE SWELL 6.7
2024-04-19 09:10 pm 2.6 2.6 8.3ENE 0.7 4.0 ESE SWELL 6.6
2024-04-19 08:40 pm 2.6 2.6 8.3 E 0.7 3.4 E SWELL 6.7
2024-04-19 08:10 pm 3.0 2.6 8.3 E 0.7 3.7 E SWELL 6.6
2024-04-19 07:40 pm 2.6 2.6 8.3 E 0.7 4.0 SE SWELL 6.5
2024-04-19 07:10 pm 2.6 2.6 7.7 E 0.7 3.7 ESE N/A 6.4
2024-04-19 06:40 pm 2.6 2.6 11.4NNE 0.7 3.7 ESE SWELL 6.7
2024-04-19 06:10 pm 2.6 2.3 8.3 E 0.7 4.0 SE N/A 6.4
2024-04-19 05:40 pm 2.6 2.6 8.3 E 0.7 3.7 ESE N/A 6.5
2024-04-19 05:10 pm 2.6 2.6 9.1ESE 0.7 4.0 ESE N/A 6.6
2024-04-19 04:40 pm 2.6 2.3 9.1 NE 0.7 3.2 ENE N/A 6.2
2024-04-19 04:10 pm 2.6 2.3 8.3ENE 0.7 4.0 ESE N/A 6.3
2024-04-19 03:40 pm 2.6 2.6 8.3ENE 0.7 3.8 ESE SWELL 6.2
2024-04-19 03:10 pm 2.6 2.6 12.1 NE 0.7 4.0 SE SWELL 6.4
2024-04-19 02:40 pm 2.6 2.6 7.7ENE 0.7 3.4 E SWELL 6.2
2024-04-19 02:10 pm 2.6 2.3 8.3ENE 0.7 4.0 ESE N/A 6.2
2024-04-19 01:40 pm 3.0 2.6 8.3 E 0.7 4.0 SE SWELL 6.4
2024-04-19 01:10 pm 3.0 2.6 7.7ENE 0.7 4.0 ESE AVERAGE 6.3
2024-04-19 12:40 pm 3.0 2.6 8.3 E 1.0 3.4 NE SWELL 6.1
2024-04-19 12:10 pm 3.3 3.3 9.1 E 1.0 3.0 NE SWELL 6.5

Plot of wave energy versus frequency (and period)